New Bedford, MA

10:25 PM EST on December 02, 2016 (GMT -0500)
New Bedford Regional

Weather History for KEWB - February, 2013

Change the Weather History Date:

Tuesday, February 26, 2013

  Actual Average Record
Temperature  
Mean Temperature 38 °F -  
Max Temperature 44 °F 38 °F 57 °F (2002)
Min Temperature 32 °F 25 °F -1 °F (1990)
Degree Days  
Heating Degree Days 27    
Moisture  
Dew Point 29 °F    
Average Humidity 71    
Maximum Humidity 92    
Minimum Humidity 47    
Precipitation  
Precipitation 0.00 in - - ()
Sea Level Pressure  
Sea Level Pressure 30.26 in    
Wind  
Wind Speed 3 mph (East)    
Max Wind Speed 12 mph    
Max Gust Speed -    
Visibility 10 miles    
Events      
Averages and records for this station are not official NWS values.
T = Trace of Precipitation, MM = Missing Value Source: NWS Daily Summary

Daily Weather History Graph

Daily Weather History Graph

Search for Another Location

Airport or City:

Trip Planner

Search our weather history database for the weather conditions in past years. The results will help you decide how hot, cold, wet, or windy it might be!

Date:

Astronomy

Feb. 26, 2013 Rise Set
Actual Time 6:22 AM EST 5:31 PM EST
Civil Twilight 5:54 AM EST 5:58 PM EST
Nautical Twilight 5:22 AM EST 6:31 PM EST
Astronomical Twilight 4:50 AM EST 7:03 PM EST
Moon 6:46 PM EST (2/26) 6:22 AM EST (2/26)
Length of Visible Light 12h 04m
Length of Day
11h 08m
Full, 99% of the Moon is Illuminated
Feb 26
Full
Mar 4
Last Quarter
Mar 11
New
Mar 19
First Quarter
Mar 27
Full

Hourly Weather History & Observations

Time (EST) Temp. Windchill Dew Point Humidity Pressure Visibility Wind Dir Wind Speed Gust Speed Precip Events Conditions
12:53 AM 34.0 °F - 28.9 °F 82% 30.25 in 10.0 mi Calm Calm - N/A   Overcast
1:53 AM 33.1 °F - 30.0 °F 89% 30.24 in 10.0 mi Calm Calm - N/A   Overcast
2:53 AM 33.1 °F - 30.0 °F 89% 30.24 in 10.0 mi Calm Calm - N/A   Overcast
3:53 AM 32.0 °F - 30.0 °F 92% 30.28 in 10.0 mi Calm Calm - N/A   Overcast
4:53 AM 32.0 °F - 30.0 °F 92% 30.29 in 10.0 mi Calm Calm - N/A   Overcast
5:53 AM 32.0 °F - 30.0 °F 92% 30.30 in 10.0 mi Calm Calm - N/A   Overcast
6:53 AM 33.1 °F - 30.9 °F 92% 30.30 in 9.0 mi Calm Calm - N/A   Overcast
7:53 AM 37.0 °F - 30.9 °F 79% 30.32 in 10.0 mi Calm Calm - N/A   Scattered Clouds
8:53 AM 39.0 °F 35.7 °F 28.9 °F 67% 30.33 in 10.0 mi SE 4.6 mph - N/A   Clear
9:53 AM 42.1 °F 37.7 °F 28.9 °F 60% 30.32 in 10.0 mi ESE 6.9 mph - N/A   Scattered Clouds
10:13 AM 42.8 °F 40.1 °F 28.4 °F 57% 30.32 in 10.0 mi East 4.6 mph - N/A   Mostly Cloudy
10:29 AM 41.0 °F - 26.6 °F 57% 30.32 in 10.0 mi Calm Calm - N/A   Scattered Clouds
10:53 AM 43.0 °F 39.5 °F 27.0 °F 53% 30.32 in 10.0 mi ENE 5.8 mph - N/A   Scattered Clouds
11:53 AM 44.1 °F 38.6 °F 27.0 °F 51% 30.31 in 10.0 mi SSE 10.4 mph - N/A   Scattered Clouds
12:53 PM 44.1 °F 38.6 °F 25.0 °F 47% 30.31 in 10.0 mi SSE 10.4 mph - N/A   Clear
1:53 PM 42.1 °F 36.6 °F 24.1 °F 49% 30.30 in 10.0 mi SE 9.2 mph - N/A   Clear
2:53 PM 41.0 °F 34.3 °F 25.0 °F 53% 30.28 in 10.0 mi SE 11.5 mph - N/A   Scattered Clouds
3:53 PM 39.9 °F 33.9 °F 26.1 °F 58% 30.28 in 10.0 mi SSE 9.2 mph - N/A   Clear
4:53 PM 37.9 °F 31.5 °F 26.1 °F 62% 30.27 in 10.0 mi SE 9.2 mph - N/A   Clear
5:53 PM 37.0 °F 31.6 °F 26.1 °F 65% 30.26 in 10.0 mi East 6.9 mph - N/A   Clear
6:53 PM 37.0 °F 31.0 °F 28.0 °F 70% 30.24 in 10.0 mi East 8.1 mph - N/A   Clear
7:53 PM 36.0 °F 30.3 °F 28.0 °F 73% 30.23 in 10.0 mi ENE 6.9 mph - N/A   Clear
8:53 PM 36.0 °F 31.1 °F 28.0 °F 73% 30.22 in 10.0 mi ENE 5.8 mph - N/A   Clear
9:53 PM 35.6 °F 30.7 °F 28.4 °F 75% 30.19 in 10.0 mi ENE 5.8 mph - N/A   Mostly Cloudy
10:53 PM 37.0 °F 31.0 °F 30.0 °F 76% 30.15 in 10.0 mi ENE 8.1 mph - N/A   Overcast
11:43 PM 37.4 °F 30.8 °F 32.0 °F 81% 30.12 in 10.0 mi ENE 9.2 mph - N/A   Overcast
11:51 PM 37.4 °F 31.4 °F 32.0 °F 81% 30.12 in 10.0 mi ENE 8.1 mph - N/A   Overcast
11:53 PM 37.9 °F 31.5 °F 32.0 °F 79% 30.12 in 10.0 mi ENE 9.2 mph - N/A   Overcast